METEOR 2-8 DEB

Satellite information

Favourite Embed

Satellite Type and Status

DEBRISIN ORBIT

Key statistics

Satellite METEOR 2-8 DEB at a glance.

Uptime

15913

Days in orbit

Revolutions

≈ 14.3

Per day

Orbit

LEO

Low Earth Orbit

Inclination

82.5

Latest

Satellite identification and parameters

Extended collection of information and parameters for METEOR 2-8 DEB.

Object identification

Identified? True

Debris? True

Object name: METEOR 2-8 DEB

International designator: 1982-025AB

Object number (NORAD): 36341

Object ID (CCSDS): 36341

Country: COMMONWEALTH OF INDEPENDENT STATES (CIS)

Current information (Y/N): Y

RCS size: SMALL

Orbital parameters

Period: 100.96 minutes

Inclination: 82.5147 deg

SMA: 7182.225 km

Apoapsis: 808.098 km

Periapsis: 800.082 km

RAAN: 52.9564 deg

Eccentricy: 0.0005581

Argument of periapsis: 267.7167 deg

Mean anomaly: 92.3378 deg

Mean motion: 14.26311096 rev/day

Mean motion (dot): 0.00007245 rev/day2

B* drag term: 0.0030109 1/REarth

Two-line elements (TLE)

Creation date: Oct. 15, 2025, 11:56 p.m.

Reference frame: TEME

Reference center: EARTH

Epoch: Oct. 15, 2025, 2:36 p.m. UTC

TLE line 0: 0 METEOR 2-8 DEB

TLE line 1: 1 36341U 82025AB 25288.60888973 .00007245 00000-0 30109-2 0 9991

TLE line 2: 2 36341 82.5147 52.9564 0005581 267.7167 92.3378 14.26311096156212

Live tracking on map

Real-time ground track for satellite METEOR 2-8 DEB.

In-orbit conjunctions

A list of the most updated potential collisions computed for object METEOR 2-8 DEB.

Target Orbit TCA Probability of collision Miss distance Type
CZ-6A DEB LEO 2025-09-04 09:29:58 0.0001127851 157.0 (m) DEBRIS
NOAA 12 SSO 2025-08-24 04:56:37 0.0001199599 880.0 (m) PAYLOAD

Associated space launch

Second generation soviet meteorological satellite

METEOR 2-8 DEB was lifted into orbit during the mission ‘Tsiklon-3 | Meteor-2 8’, on board a Tsiklon-3 space rocket.

The launch took place on March 25, 1982, 9:50 a.m. from 32/1.

For more information about the launch, click the button.

Launch to space Tsiklon-3 | Meteor-2 8
Tsiklon-3 | Meteor-2 8

Agency: N/A

Status: Launch Successful

Launch date: March 25, 1982, 9:50 a.m. UTC

Rocket: Tsiklon-3

Launch pad: 32/1

Location: Plesetsk Cosmodrome, Russian Federation

...

Latest news about this satellite

There are no fresh news available about this satellite. Check back as we update our databases every day.


Newsletter sign-up

Weekly statistics, charts and insights to help you stay on top of the space industry.